Location: Lachepaillet
(43.4918°N, 1.4874°W)
Time: 23:36:17
(UTC+00:00)

Cosmos 1812 Rocket - Pass Details

Date: 15 May 2026
Orbit: 599 x 624 km, 82.5° (Epoch: 11 June)

Event Time Altitude Azimuth Distance (km) Brightness Sun altitude
Exits shadow 23:40:00 57° 342° (NNW) 733 4.1 -27.2°
Drops below altitude 10° 23:43:38 10° 5° (N) 2,000 7.1 -27.3°
Sets 23:45:54 0° 7° (N) 2,914 8.2 -27.3°
